FW2996 Weather Reports


Display with metric or nautical units.
time (UTC)temp
F
wind
direction
speed
MPH
gust
MPH
rain 1hr
in
rain 24hr
in
rain mn
in
humidity
%
barometer
mb
20260831224101 96 123 6.0 9.0 0.00 0.00 0.00 41 1055.3
20260831223556 96 193 6.0 8.0 0.00 0.00 0.00 41 1055.4
20260831223053 96 171 7.0 9.0 0.00 0.00 0.00 41 1055.3
20260831222548 95 67 2.0 4.0 0.00 0.00 0.00 40 1055.4
20260831222043 96 122 2.0 7.0 0.00 0.00 0.00 41 1055.5
20260831221539 96 149 3.0 10.0 0.00 0.00 0.00 40 1055.4
20260831221038 95 199 4.0 10.0 0.00 0.00 0.00 42 1055.5
20260831220533 95 169 4.0 10.0 0.00 0.00 0.00 43 1055.5
20260831220029 95 260 3.0 4.0 0.00 0.00 0.00 42 1055.4
20260831215525 96 75 2.0 7.0 0.00 0.00 0.00 41 1055.3
20260831215020 96 165 8.0 10.0 0.00 0.00 0.00 40 1055.6
20260831214518 96 254 4.0 7.0 0.00 0.00 0.00 40 1055.7
20260831214013 96 192 2.0 3.0 0.00 0.00 0.00 40 1055.6
20260831213510 96 191 7.0 11.0 0.00 0.00 0.00 41 1055.9
20260831213005 96 120 2.0 10.0 0.00 0.00 0.00 41 1055.9
20260831212501 96 176 4.0 11.0 0.00 0.00 0.00 40 1056.0
20260831212000 95 238 1.0 8.0 0.00 0.00 0.00 42 1056.0
20260831211455 95 130 10.0 13.0 0.00 0.00 0.00 43 1056.0
20260831210954 96 260 3.0 8.0 0.00 0.00 0.00 41 1055.9
20260831210449 96 106 6.0 10.0 0.00 0.00 0.00 42 1056.3
20260831205946 95 170 6.0 8.0 0.00 0.00 0.00 42 1056.1
20260831205442 95 198 2.0 8.0 0.00 0.00 0.00 40 1056.5
20260831204937 94 190 3.0 11.0 0.00 0.00 0.00 42 1056.6
20260831204437 94 68 2.0 9.0 0.00 0.00 0.00 43 1056.5
20260831203935 94 126 4.0 13.0 0.00 0.00 0.00 42 1056.6
20260831203429 94 84 3.0 11.0 0.00 0.00 0.00 44 1056.7
20260831202927 94 122 7.0 14.0 0.00 0.00 0.00 42 1056.9
20260831202423 94 127 11.0 16.0 0.00 0.00 0.00 44 1056.8
20260831201918 95 106 2.0 7.0 0.00 0.00 0.00 44 1057.0
20260831201416 95 120 6.0 14.0 0.00 0.00 0.00 42 1057.2
20260831200913 96 117 4.0 7.0 0.00 0.00 0.00 45 1057.4
20260831200407 94 133 8.0 11.0 0.00 0.00 0.00 46 1057.4
20260831195902 94 135 1.0 7.0 0.00 0.00 0.00 46 1057.4
20260831195357 94 102 8.0 14.0 0.00 0.00 0.00 46 1057.5
20260831194853 95 184 3.0 10.0 0.00 0.00 0.00 47 1057.5
20260831194348 94 127 4.0 8.0 0.00 0.00 0.00 48 1057.7
20260831193847 93 182 7.0 14.0 0.00 0.00 0.00 49 1057.7
20260831193342 93 250 4.0 14.0 0.00 0.00 0.00 49 1057.6
20260831192837 94 189 3.0 8.0 0.00 0.00 0.00 49 1057.6
20260831192332 94 176 6.0 8.0 0.00 0.00 0.00 48 1057.7
20260831191828 94 197 3.0 11.0 0.00 0.00 0.00 48 1057.9
20260831191324 94 130 10.0 11.0 0.00 0.00 0.00 50 1057.8
20260831190820 93 161 5.0 9.0 0.00 0.00 0.00 50 1057.9
20260831190319 93 117 5.0 14.0 0.00 0.00 0.00 51 1058.2
20260831185819 93 186 8.0 11.0 0.00 0.00 0.00 52 1058.1
20260831185315 93 144 6.0 8.0 0.00 0.00 0.00 50 1058.2
20260831184814 92 164 4.0 11.0 0.00 0.00 0.00 52 1058.2
20260831184310 92 132 10.0 13.0 0.00 0.00 0.00 52 1058.2
20260831183805 92 169 4.0 9.0 0.00 0.00 0.00 52 1058.4
20260831183304 93 235 2.0 7.0 0.00 0.00 0.00 50 1058.5
20260831182803 93 193 6.0 10.0 0.00 0.00 0.00 50 1058.3
20260831182305 90 55 5.0 10.0 0.00 0.00 0.00 54 1058.5
20260831181759 91 167 8.0 9.0 0.00 0.00 0.00 54 1058.5
20260831181254 90 98 5.0 11.0 0.00 0.00 0.00 56 1058.6
20260831180754 91 119 5.0 9.0 0.00 0.00 0.00 53 1058.6
20260831180249 92 121 5.0 9.0 0.00 0.00 0.00 55 1058.6
20260831175748 91 147 9.0 13.0 0.00 0.00 0.00 55 1058.7
20260831175245 91 131 2.0 6.0 0.00 0.00 0.00 55 1058.8
20260831174740 90 140 6.0 11.0 0.00 0.00 0.00 56 1058.9
20260831174236 91 123 6.0 8.0 0.00 0.00 0.00 54 1058.9
20260831173735 91 153 2.0 7.0 0.00 0.00 0.00 54 1058.9
20260831173230 89 161 4.0 9.0 0.00 0.00 0.00 58 1058.9
20260831172725 90 203 4.0 7.0 0.00 0.00 0.00 55 1059.0
20260831172220 91 167 9.0 13.0 0.00 0.00 0.00 57 1059.2
20260831171714 90 118 6.0 13.0 0.00 0.00 0.00 59 1059.0
20260831171212 89 131 5.0 8.0 0.00 0.00 0.00 59 1059.2
20260831170708 90 125 4.0 10.0 0.00 0.00 0.00 59 1059.1
20260831170205 90 124 5.0 7.0 0.00 0.00 0.00 56 1059.4
20260831165700 88 186 2.0 2.0 0.00 0.00 0.00 61 1059.1
20260831165157 88 154 1.0 8.0 0.00 0.00 0.00 61 1059.2
20260831164652 89 122 6.0 9.0 0.00 0.00 0.00 61 1059.2
20260831164148 89 164 6.0 11.0 0.00 0.00 0.00 63 1059.5
20260831163643 88 113 9.0 11.0 0.00 0.00 0.00 62 1059.2
20260831163139 90 132 5.0 8.0 0.00 0.00 0.00 61 1059.2
20260831162638 88 123 4.0 8.0 0.00 0.00 0.00 64 1059.4
20260831162136 90 145 5.0 7.0 0.00 0.00 0.00 60 1059.2
20260831161632 89 221 2.0 7.0 0.00 0.00 0.00 63 1059.3
20260831161129 88 207 2.0 8.0 0.00 0.00 0.00 64 1059.3
20260831160627 86 231 0.0 1.0 0.00 0.00 0.00 67 1059.3
20260831160123 87 243 2.0 6.0 0.00 0.00 0.00 69 1059.1
20260831155617 85 166 1.0 4.0 0.00 0.00 0.00 71 1059.4
20260831155113 85 116 1.0 3.0 0.00 0.00 0.00 70 1059.4
20260831154608 86 203 3.0 8.0 0.00 0.00 0.00 70 1059.3
20260831154108 87 230 2.0 6.0 0.00 0.00 0.00 70 1059.3
20260831153607 86 231 3.0 11.0 0.00 0.00 0.00 69 1059.1
20260831153105 87 242 4.0 7.0 0.00 0.00 0.00 68 1059.3
20260831152559 86 169 4.0 10.0 0.00 0.00 0.00 70 1059.1
20260831152055 86 191 1.0 7.0 0.00 0.00 0.00 69 1058.8
20260831151554 86 158 5.0 13.0 0.00 0.00 0.00 72 1059.0
20260831151049 85 197 2.0 13.0 0.00 0.00 0.00 73 1058.9
20260831150544 85 181 3.0 8.0 0.00 0.00 0.00 73 1059.1
20260831150040 84 240 3.0 6.0 0.00 0.00 0.00 76 1059.1
20260831145534 82 244 4.0 7.0 0.00 0.00 0.00 81 1059.1
20260831145031 83 215 6.0 9.0 0.00 0.00 0.00 78 1058.8
20260831144526 85 197 3.0 4.0 0.00 0.00 0.00 75 1058.8
20260831144021 83 223 2.0 4.0 0.00 0.00 0.00 79 1058.8
20260831143516 83 260 2.0 6.0 0.00 0.00 0.00 79 1058.8
20260831143011 83 237 6.0 9.0 0.00 0.00 0.00 80 1058.6
20260831142508 83 103 2.0 4.0 0.00 0.00 0.00 80 1058.7
20260831142002 82 222 2.0 6.0 0.00 0.00 0.00 82 1058.7
20260831141456 81 176 6.0 9.0 0.00 0.00 0.00 84 1058.6
20260831140951 80 215 3.0 8.0 0.00 0.00 0.00 87 1058.6
20260831140450 80 217 6.0 9.0 0.00 0.00 0.00 87 1058.5
20260831135949 79 236 5.0 7.0 0.00 0.00 0.00 88 1058.6
20260831135448 80 239 3.0 7.0 0.00 0.00 0.00 88 1058.5
20260831134943 80 194 4.0 8.0 0.00 0.00 0.00 88 1058.4
20260831134435 80 194 8.0 8.0 0.00 0.00 0.00 88 1058.4
20260831133934 80 241 4.0 7.0 0.00 0.00 0.00 88 1058.1
20260831133434 79 237 4.0 6.0 0.00 0.00 0.00 90 1058.1
20260831132930 79 206 2.0 6.0 0.00 0.00 0.00 91 1058.2
20260831132425 79 178 0.0 3.0 0.00 0.00 0.00 91 1058.3
20260831131924 78 170 2.0 3.0 0.00 0.00 0.00 92 1058.1
20260831131420 78 166 2.0 3.0 0.00 0.00 0.00 92 1058.3
20260831130915 78 188 2.0 4.0 0.00 0.00 0.00 93 1058.2
20260831130410 77 225 2.0 2.0 0.00 0.00 0.00 94 1058.2
20260831125909 77 204 2.0 3.0 0.00 0.00 0.00 94 1058.0
20260831125405 77 196 1.0 3.0 0.00 0.00 0.00 95 1057.9
20260831124900 76 186 0.0 4.0 0.00 0.00 0.00 95 1057.9
20260831124356 76 203 1.0 3.0 0.00 0.00 0.00 96 1058.0
20260831123851 76 184 0.0 2.0 0.00 0.00 0.00 96 1057.9
20260831123350 75 193 1.0 2.0 0.00 0.00 0.00 97 1057.7
20260831122844 75 155 1.0 3.0 0.00 0.00 0.00 97 1057.9
20260831122335 75 169 0.0 3.0 0.00 0.00 0.00 97 1057.8
20260831121834 75 169 0.0 2.0 0.00 0.00 0.00 97 1057.8
20260831121331 75 124 1.0 2.0 0.00 0.00 0.00 97 1057.9
20260831120826 75 175 0.0 1.0 0.00 0.00 0.00 97 1057.8
20260831120320 75 183 0.0 4.0 0.00 0.00 0.00 96 1057.9
20260831115815 75 140 0.0 4.0 0.00 0.00 0.00 96 1057.6
20260831115312 75 143 2.0 2.0 0.00 0.00 0.00 96 1057.8
20260831114811 75 177 2.0 3.0 0.00 0.00 0.00 96 1057.7
20260831114310 75 174 1.0 1.0 0.00 0.00 0.00 96 1057.7
20260831113806 75 179 0.0 1.0 0.00 0.00 0.00 95 1057.6
20260831113305 75 199 2.0 3.0 0.00 0.00 0.00 96 1057.6
20260831112800 76 175 0.0 3.0 0.00 0.00 0.00 95 1057.7
20260831112255 76 150 0.0 2.0 0.00 0.00 0.00 95 1057.7
20260831111750 76 196 2.0 3.0 0.00 0.00 0.00 95 1057.6
20260831111247 76 119 1.0 3.0 0.00 0.00 0.00 95 1057.8
20260831110743 76 151 2.0 4.0 0.00 0.00 0.00 95 1057.7
20260831110237 76 142 1.0 2.0 0.00 0.00 0.00 95 1057.6
20260831105736 76 212 1.0 3.0 0.00 0.00 0.00 95 1057.6
20260831105232 76 208 3.0 3.0 0.00 0.00 0.00 95 1057.6
20260831104726 76 179 0.0 3.0 0.00 0.00 0.00 94 1057.6
20260831104224 76 196 1.0 6.0 0.00 0.00 0.00 94 1057.5
20260831103723 76 203 1.0 2.0 0.00 0.00 0.00 94 1057.4
20260831103219 76 162 2.0 3.0 0.00 0.00 0.00 94 1057.6
20260831102718 76 191 0.0 1.0 0.00 0.00 0.00 94 1057.7
20260831102214 76 213 0.0 1.0 0.00 0.00 0.00 94 1057.5
20260831101709 76 203 1.0 2.0 0.00 0.00 0.00 94 1057.6
20260831101204 76 127 0.0 3.0 0.00 0.00 0.00 94 1057.5
20260831100700 76 196 3.0 6.0 0.00 0.00 0.00 94 1057.6
20260831100156 76 172 2.0 4.0 0.00 0.00 0.00 93 1057.7
20260831095654 76 149 3.0 6.0 0.00 0.00 0.00 93 1057.6
20260831095149 76 195 2.0 4.0 0.00 0.00 0.00 93 1057.6
20260831094649 76 207 2.0 6.0 0.00 0.00 0.00 93 1057.5
20260831094146 76 164 3.0 7.0 0.00 0.00 0.00 93 1057.4
20260831093642 76 158 0.0 7.0 0.00 0.00 0.00 93 1057.4
20260831093137 76 251 4.0 7.0 0.00 0.00 0.00 93 1057.5
20260831092633 76 192 2.0 3.0 0.00 0.00 0.00 93 1057.4
20260831092128 76 139 1.0 3.0 0.00 0.00 0.00 93 1057.4
20260831091628 76 170 2.0 4.0 0.00 0.00 0.00 92 1057.5
20260831091123 76 196 8.0 9.0 0.00 0.00 0.00 92 1057.7
20260831090619 76 150 1.0 8.0 0.00 0.00 0.00 92 1057.6
20260831090115 76 158 3.0 6.0 0.00 0.00 0.00 92 1057.5
20260831085610 76 197 2.0 4.0 0.00 0.00 0.00 92 1057.4
20260831085105 76 162 2.0 7.0 0.00 0.00 0.00 92 1057.5
20260831084601 76 148 2.0 6.0 0.00 0.00 0.00 91 1057.5
20260831084057 76 177 4.0 6.0 0.00 0.00 0.00 91 1057.4
20260831083553 76 125 3.0 7.0 0.00 0.00 0.00 90 1057.5
20260831083047 76 138 1.0 3.0 0.00 0.00 0.00 90 1057.6
20260831082541 77 138 2.0 6.0 0.00 0.00 0.00 89 1057.8
20260831082031 77 157 1.0 6.0 0.00 0.00 0.00 89 1057.5
20260831081526 77 145 2.0 6.0 0.00 0.00 0.00 89 1057.5
20260831081022 77 208 2.0 6.0 0.00 0.00 0.00 88 1057.6
20260831080516 77 118 2.0 4.0 0.00 0.00 0.00 88 1057.7
20260831080012 77 161 3.0 4.0 0.00 0.00 0.00 87 1057.4
20260831075507 77 150 3.0 6.0 0.00 0.00 0.00 87 1057.5
20260831075002 77 152 3.0 4.0 0.00 0.00 0.00 86 1057.4
20260831074456 77 182 5.0 9.0 0.00 0.00 0.00 86 1057.4
20260831073950 77 191 5.0 7.0 0.00 0.00 0.00 85 1057.6
20260831073444 77 177 2.0 6.0 0.00 0.00 0.00 85 1057.7
20260831072943 78 217 3.0 8.0 0.00 0.00 0.00 84 1057.7
20260831072440 78 216 5.0 7.0 0.00 0.00 0.00 84 1057.6
20260831071936 78 174 3.0 7.0 0.00 0.00 0.00 84 1057.6
20260831071435 78 165 4.0 6.0 0.00 0.00 0.00 83 1057.7
20260831070930 78 197 6.0 9.0 0.00 0.00 0.00 83 1057.5
20260831070429 78 194 4.0 8.0 0.00 0.00 0.00 83 1057.6
20260831065928 78 148 6.0 8.0 0.00 0.00 0.00 82 1057.7
20260831065426 78 199 4.0 8.0 0.00 0.00 0.00 82 1057.6
20260831064921 78 135 5.0 10.0 0.00 0.00 0.00 81 1057.7
20260831064416 79 212 4.0 10.0 0.00 0.00 0.00 81 1057.6
20260831063912 79 179 6.0 8.0 0.00 0.00 0.00 81 1057.8
20260831063407 79 160 4.0 10.0 0.00 0.00 0.00 80 1058.0
20260831062901 79 205 5.0 7.0 0.00 0.00 0.00 80 1057.7
20260831062357 79 188 1.0 7.0 0.00 0.00 0.00 79 1057.7
20260831061850 80 211 4.0 7.0 0.00 0.00 0.00 79 1057.7
20260831061349 80 144 3.0 7.0 0.00 0.00 0.00 78 1057.8
20260831060846 80 182 6.0 8.0 0.00 0.00 0.00 78 1057.7
20260831060345 80 173 5.0 11.0 0.00 0.00 0.00 77 1057.6
20260831055844 80 137 4.0 9.0 0.00 0.00 0.00 77 1057.6
20260831055340 80 218 4.0 8.0 0.00 0.00 0.00 77 1057.7
20260831054835 80 172 2.0 6.0 0.00 0.00 0.00 77 1057.6
20260831054331 81 163 4.0 6.0 0.00 0.00 0.00 76 1057.4
20260831053829 81 140 4.0 8.0 0.00 0.00 0.00 76 1057.5
20260831053323 81 187 5.0 9.0 0.00 0.00 0.00 75 1057.3
20260831052817 81 185 4.0 7.0 0.00 0.00 0.00 75 1057.4
20260831052316 81 178 4.0 9.0 0.00 0.00 0.00 75 1057.3
20260831051814 81 179 4.0 8.0 0.00 0.00 0.00 74 1057.3
20260831051314 82 174 3.0 7.0 0.00 0.00 0.00 74 1057.3
20260831050809 82 155 5.0 7.0 0.00 0.00 0.00 74 1057.3
20260831050307 82 140 3.0 9.0 0.00 0.00 0.00 74 1057.2
20260831045802 82 112 4.0 10.0 0.00 0.00 0.00 74 1057.3
20260831045305 82 151 3.0 6.0 0.00 0.00 0.00 73 1057.4
20260831044757 83 182 4.0 15.0 0.00 0.00 0.00 73 1057.3
20260831044252 83 189 4.0 10.0 0.00 0.00 0.00 72 1057.0
20260831043748 83 168 4.0 9.0 0.00 0.00 0.00 72 1057.3
20260831043242 83 188 3.0 9.0 0.00 0.00 0.00 71 1057.2
20260831042742 83 184 5.0 6.0 0.00 0.00 0.00 70 1057.3
20260831042237 83 180 2.0 7.0 0.00 0.00 0.00 69 1057.3
20260831041732 84 139 3.0 6.0 0.00 0.00 0.00 69 1057.3
20260831041231 84 156 4.0 7.0 0.00 0.00 0.00 68 1057.0
20260831040726 84 159 3.0 11.0 0.00 0.00 0.00 68 1057.0
20260831040226 84 152 5.0 10.0 0.00 0.00 0.00 67 1057.4
20260831035724 84 154 5.0 9.0 0.00 0.00 0.00 67 1057.0
20260831035218 84 130 4.0 9.0 0.00 0.00 0.00 66 1057.0
20260831034718 85 192 5.0 10.0 0.00 0.00 0.00 65 1057.2
20260831034214 85 189 5.0 10.0 0.00 0.00 0.00 65 1057.0
20260831033709 85 199 5.0 11.0 0.00 0.00 0.00 64 1056.7
20260831033208 85 153 4.0 8.0 0.00 0.00 0.00 64 1056.7
20260831032703 85 127 4.0 9.0 0.00 0.00 0.00 64 1056.6
20260831032159 86 141 3.0 9.0 0.00 0.00 0.00 64 1056.6
20260831031654 86 150 5.0 9.0 0.00 0.00 0.00 64 1056.4
20260831031153 86 129 4.0 6.0 0.00 0.00 0.00 63 1056.6
20260831030652 86 147 4.0 10.0 0.00 0.00 0.00 63 1056.5
20260831030151 86 125 8.0 10.0 0.00 0.00 0.00 62 1056.4
20260831025649 86 143 6.0 7.0 0.00 0.00 0.00 62 1056.3
20260831025144 86 165 6.0 9.0 0.00 0.00 0.00 61 1056.2
20260831024640 86 116 5.0 8.0 0.00 0.00 0.00 60 1056.3
20260831024139 86 134 4.0 8.0 0.00 0.00 0.00 60 1056.0
20260831023638 86 138 3.0 7.0 0.00 0.00 0.00 60 1056.0
20260831023137 86 151 3.0 4.0 0.00 0.00 0.00 59 1055.9
20260831022632 87 136 2.0 2.0 0.00 0.00 0.00 59 1056.0
20260831022127 87 167 3.0 6.0 0.00 0.00 0.00 58 1055.7
20260831021626 87 124 3.0 4.0 0.00 0.00 0.00 57 1055.6
20260831021122 87 139 2.0 6.0 0.00 0.00 0.00 57 1055.6
20260831020618 87 129 2.0 6.0 0.00 0.00 0.00 56 1055.5
20260831020113 87 171 3.0 4.0 0.00 0.00 0.00 56 1055.4
20260831015608 87 135 4.0 8.0 0.00 0.00 0.00 55 1055.4
20260831015103 86 142 4.0 6.0 0.00 0.00 0.00 55 1055.3
20260831014557 87 134 2.0 2.0 0.00 0.00 0.00 55 1055.2
20260831014053 87 134 0.0 0.0 0.00 0.00 0.00 54 1055.1
20260831013549 88 134 0.0 1.0 0.00 0.00 0.00 53 1055.2
20260831013043 88 134 1.0 1.0 0.00 0.00 0.00 53 1055.0
20260831012543 88 134 1.0 2.0 0.00 0.00 0.00 53 1055.0
20260831012038 88 134 0.0 1.0 0.00 0.00 0.00 52 1055.0
20260831011538 89 133 1.0 1.0 0.00 0.00 0.00 52 1054.7
20260831011033 89 133 1.0 4.0 0.00 0.00 0.00 50 1054.9
20260831010528 90 139 2.0 3.0 0.00 0.00 0.00 50 1054.8
20260831010019 90 123 1.0 4.0 0.00 0.00 0.00 49 1055.0
20260831005519 90 142 2.0 2.0 0.00 0.00 0.00 49 1054.8
20260831005018 91 155 2.0 3.0 0.00 0.00 0.00 48 1054.8
20260831004515 91 154 2.0 2.0 0.00 0.00 0.00 48 1054.9
20260831004016 91 166 2.0 3.0 0.00 0.00 0.00 47 1054.9
20260831003512 92 152 2.0 3.0 0.00 0.00 0.00 46 1054.8
20260831003007 92 143 2.0 3.0 0.00 0.00 0.00 45 1054.7
20260831002506 92 139 2.0 4.0 0.00 0.00 0.00 45 1054.7
20260831002000 93 154 1.0 3.0 0.00 0.00 0.00 45 1054.8
20260831001456 93 242 2.0 4.0 0.00 0.00 0.00 45 1054.7
20260831000953 93 193 1.0 2.0 0.00 0.00 0.00 44 1054.8
20260831000448 93 142 2.0 8.0 0.00 0.00 0.00 44 1054.8
20260830235946 93 165 4.0 6.0 0.00 0.00 0.00 43 1054.7
20260830235442 94 127 3.0 9.0 0.00 0.00 0.00 43 1054.7
20260830234937 93 164 4.0 7.0 0.00 0.00 0.00 43 1054.9
20260830234432 93 117 3.0 8.0 0.00 0.00 0.00 43 1054.9
20260830233928 93 141 4.0 7.0 0.00 0.00 0.00 43 1054.7
20260830233423 93 120 4.0 8.0 0.00 0.00 0.00 44 1054.8
20260830232919 93 149 3.0 9.0 0.00 0.00 0.00 44 1055.0
20260830232415 93 150 6.0 11.0 0.00 0.00 0.00 44 1055.0
20260830231912 95 117 6.0 10.0 0.00 0.00 0.00 43 1054.9
20260830231406 94 174 6.0 9.0 0.00 0.00 0.00 43 1054.7
20260830230905 94 142 4.0 10.0 0.00 0.00 0.00 42 1054.9
20260830230401 93 128 11.0 14.0 0.00 0.00 0.00 44 1054.8
20260830225900 94 124 7.0 10.0 0.00 0.00 0.00 44 1054.9
20260830225355 94 130 10.0 11.0 0.00 0.00 0.00 44 1054.9
20260830224850 95 133 6.0 8.0 0.00 0.00 0.00 42 1055.0